This is the latest recevied weather packets stored in our database for station/object WO0TEN. If no packets are shown the sender has not sent any weather packets the latest 1 day(s).
| Time | Temp. | Humidity | Pressure | Rain* | Wind** | Luminosity | Snow |
|---|---|---|---|---|---|---|---|
| 1777983067 | 21.11° C | 9% | - | 7.37 mm | 0.45 m/s, 270° | - | - |
| 1777982467 | 21.11° C | 9% | - | 7.37 mm | 0 m/s | - | - |
| 1777981867 | 21.11° C | 9% | - | 7.37 mm | 0.45 m/s, 293° | - | - |
| 1777981268 | 21.11° C | 9% | - | 7.37 mm | 0.89 m/s, 293° | - | - |
| 1777980667 | 21.11° C | 9% | - | 7.37 mm | 0.89 m/s, 68° | - | - |
| 1777980066 | 21.11° C | 9% | - | 7.37 mm | 0.89 m/s, 203° | - | - |
| 1777979467 | 21.11° C | 9% | - | 7.37 mm | 0.45 m/s, 293° | - | - |
| 1777978868 | 21.11° C | 9% | - | 7.37 mm | 1.79 m/s, 315° | - | - |
| 1777978267 | 21.11° C | 9% | - | 7.37 mm | 1.34 m/s, 225° | - | - |
| 1777977668 | 21.11° C | 9% | - | 7.37 mm | 0.89 m/s, 23° | - | - |
| 1777977067 | 21.11° C | 9% | - | 7.37 mm | 0.89 m/s, 248° | - | - |
| 1777976467 | 21.11° C | 9% | - | 7.37 mm | 1.79 m/s, 338° | - | - |
| 1777975867 | 21.11° C | 9% | - | 7.37 mm | 0.89 m/s, 270° | - | - |
| 1777975268 | 21.11° C | 9% | - | 7.37 mm | 0 m/s | - | - |
| 1777974667 | 21.11° C | 9% | - | 7.37 mm | 0.89 m/s, 270° | - | - |
| 1777974067 | 21.11° C | 9% | - | 7.37 mm | 0.45 m/s, 270° | - | - |
| 1777973468 | 21.11° C | 9% | - | 7.37 mm | 0.89 m/s, 338° | - | - |
| 1777972867 | 21.11° C | 9% | - | 7.37 mm | 0.89 m/s, 270° | - | - |
| 1777972267 | 21.11° C | 9% | - | 7.37 mm | 0.89 m/s, 270° | - | - |
| 1777971669 | 21.11° C | 9% | - | 7.37 mm | 0 m/s | - | - |
* Rain since midnight (hover to see other rain measurements)
** Current wind speed in m/s (hover to see current wind gust speed)